Regional Weather Roundup
Issued by NWS

Home | Current Version | Previous Version | Text Only | Print | Product List | Glossary On
Versions: 1 2 3 4 5 6 7 8 9 10 11 12 13 14 15 16 17 18 19 20 21 22 23 24 25 26 27 28 29 30 31 32 33 34 35 36 37 38 39 40 41 42 43 44 45 46 47 48 49 50
000
ASUS45 KCYS 171010
RWRWY

WYOMING REGIONAL WEATHER ROUNDUP
NATIONAL WEATHER SERVICE CHEYENNE WY
400 AM MDT WED SEP 17 2014

NOTE:  "FAIR" INDICATES FEW OR NO CLOUDS BELOW 12,000 FEET
WITH NO SIGNIFICANT WEATHER AND/OR OBSTRUCTIONS TO VISIBILITY.

WYZ001-171100-
YELLOWSTONE NATIONAL PARK

CITY           SKY/WX    TMP DP  RH WIND       PRES   REMARKS
LK YELLOWSTONE   N/A     36  34  92 NW3       30.25S
W YELLOWSTONE  NOT AVBL

$$
WYZ002>013-054>058-071-098>099-171100-
NORTHERN WYOMING

CITY           SKY/WX    TMP DP  RH WIND       PRES   REMARKS
JACKSON        CLEAR     43  39  87 CALM      30.16S
CODY           PTCLDY    52  43  71 S5        30.06S
GREYBULL       PTCLDY    61  45  55 S7        29.97F
WORLAND        PTCLDY    52  46  80 CALM      30.00R
SHERIDAN       MOCLDY    59  45  59 W6        29.97R
BUFFALO        LGT RAIN  66  42  41 S9        30.04S
GILLETTE       MOCLDY    67  36  31 SW17G25   29.99F
HULETT         FAIR      52  36  54 MISG      30.00
NEWCASTLE      FAIR      52  34  50 N10       30.02

$$
WYZ014>020-022>026-101>103-171100-
CENTRAL WYOMING

CITY           SKY/WX    TMP DP  RH WIND       PRES   REMARKS
BIG PINEY      CLEAR     41  34  76 NW5       30.21F
PINEDALE       SUNNY     37  36  93 W7        30.21F WCI  32
DUBOIS         FAIR      45  41  87 NW6       30.20S
LANDER         CLEAR     58  40  51 SW10      30.09R
RIVERTON       PTCLDY    56  42  59 NW6       30.08F
CASPER         PTCLDY    56  36  47 W9        30.07S
DOUGLAS        NOT AVBL

$$
WYZ021-027>030-104>119-171100-
SOUTHERN WYOMING

CITY           SKY/WX    TMP DP  RH WIND       PRES   REMARKS
EVANSTON       CLEAR     60  36  40 S6        30.19F
KEMMERER       MOSUNNY   46  37  71 N9        30.20F
FORT BRIDGER   FAIR      59  37  42 SW8       30.21F
ROCK SPRINGS   CLEAR     57  36  45 E5        30.17F
DIXON          FAIR      52  39  63 E8        30.21S
RAWLINS        CLEAR     52  35  52 NE3       30.19S
SARATOGA       FAIR      46  37  71 S3        30.21S
LARAMIE        PTCLDY    46  33  60 E3        30.21S
CHEYENNE       CLEAR     55  35  47 W9        30.12F
TORRINGTON     MOCLDY    52  45  77 S6        29.96F
PINE BLUFFS    FAIR      45  37  76 W3        30.07S

$$


USA.gov is the U.S. government's official web portal to all federal, state and local government web resources and services.